Regional Weather Roundup
Issued by NWS

Home | Current Version | Previous Version | Graphics & Text | Print | Product List | Glossary On
Versions: 1 2 3 4 5 6 7 8 9 10 11 12 13 14 15 16 17 18 19 20 21 22 23 24 25 26 27 28 29 30 31 32 33 34 35 36 37 38 39 40 41 42 43 44 45 46 47 48 49 50
000
ASUS43 KBIS 211359
RWRND

NORTH DAKOTA REGIONAL WEATHER ROUNDUP
NATIONAL WEATHER SERVICE BISMARCK ND
900 AM CDT TUE OCT 21 2014

NOTE: "FAIR" INDICATES FEW OR NO CLOUDS BELOW 12,000 FEET WITH NO
SIGNIFICANT WEATHER AND/OR OBSTRUCTIONS TO VISIBILITY.


NDZ001>003-009>011-017-211500-
NORTHWEST NORTH DAKOTA

CITY           SKY/WX    TMP DP  RH WIND       PRES   REMARKS
WILLISTON      CLEAR     39  35  86 N3        29.74F
MINOT          CLEAR     45  36  70 SE6       29.80F
$$

NDZ018>021-031>035-040>046-211500-
SOUTHWEST NORTH DAKOTA

CITY           SKY/WX    TMP DP  RH WIND       PRES   REMARKS
BISMARCK       CLEAR     48  38  68 E8        29.83F
GARRISON         N/A     46  39  76 SE7       29.81S
HETTINGER ARPT CLEAR     39  36  89 SE3       29.79S
$$

NDZ004>008-012>016-024-026-027-054-211500-
NORTHEAST NORTH DAKOTA

CITY           SKY/WX    TMP DP  RH WIND       PRES   REMARKS
GRAND FORKS    CLEAR     39  37  92 SE10      30.01F
DEVILS LAKE    CLEAR     46  36  66 SE13      29.90F
$$

NDZ022-023-025-028>030-036>039-047>053-211500-
SOUTHEAST NORTH DAKOTA

CITY           SKY/WX    TMP DP  RH WIND       PRES   REMARKS
FARGO          CLEAR     46  38  73 SE17G28   30.02F
JAMESTOWN      CLEAR     47  38  71 SE12      29.93S
$$




USA.gov is the U.S. government's official web portal to all federal, state and local government web resources and services.